{"data":{"norad_id":56169,"intl_designator":"2023-050H","name":"CHECKMATE 3","alt_names":[],"object_type":"PAYLOAD","status":"ACTIVE","operator":null,"country":"US","launch_date":"2023-04-02","launch_site_code":"AFWTR","launch_vehicle":null,"mission":null,"orbit_class":"UNKNOWN","rcs_meters":null,"size_class":null,"mass_kg":null,"dimensions":null,"purposes":[],"wikipedia_slug":null,"has_3d_model":false,"image_url":null,"decayed_at":null,"tle_current":{"epoch":"2026-05-24T23:28:54.397632Z","epoch_age_seconds":76943,"freshness":"FRESH","line1":"1 56169U 23050H   26144.97840738  .00000038  00000+0  23970-4 0  9995","line2":"2 56169  81.0018  93.6742 0007726  24.3867 335.7654 13.85146537158909","mean_motion":13.85146537,"eccentricity":0.0007726,"inclination_deg":81.0018,"raan_deg":93.6742,"arg_perigee_deg":24.3867,"mean_anomaly_deg":335.7654,"bstar":2.397e-5,"rev_number":15890,"period_min":103.96011985265,"perigee_km":940.0307780276,"apogee_km":951.34755421949,"semimajor_km":7323.8261661235,"source":"CELESTRAK","updated_at":"2026-05-25T13:37:59.370157Z"}}}